Time,TemperatureF,DewpointF,PressureIn,WindDirection,WindDirectionDegrees,WindSpeedMPH,WindSpeedGustMPH,Humidity,HourlyPrecipIn,Conditions,Clouds,dailyrainin,SolarRadiationWatts/m^2,SoftwareType,DateUTC
2013-09-17 00:00:00,56.2,45.8,30.23,North,360,5.0,5.0,68,0.00,,,0.01,0,Wunderground v.1.15,2013-09-17 04:00:00,
2013-09-17 00:02:00,56.0,45.6,30.23,North,360,5.0,5.0,68,0.00,,,0.00,0,Wunderground v.1.15,2013-09-17 04:02:00,
2013-09-17 00:06:00,55.9,45.5,30.23,North,360,4.0,4.0,68,0.00,,,0.00,0,Wunderground v.1.15,2013-09-17 04:06:00,
2013-09-17 00:10:00,55.7,45.7,30.23,North,360,3.0,4.0,69,0.00,,,0.00,0,Wunderground v.1.15,2013-09-17 04:10:00,
2013-09-17 00:21:00,55.4,45.4,30.24,North,360,3.0,3.0,69,0.00,,,0.00,0,Wunderground v.1.15,2013-09-17 04:21:00,
2013-09-17 00:32:00,55.0,44.6,30.25,North,360,3.0,4.0,68,0.00,,,0.00,0,Wunderground v.1.15,2013-09-17 04:32:00,
2013-09-17 00:42:00,54.5,43.4,30.25,North,360,5.0,5.0,66,0.00,,,0.00,0,Wunderground v.1.15,2013-09-17 04:42:00,
2013-09-17 00:52:00,54.2,42.7,30.25,North,360,3.0,5.0,65,0.00,,,0.00,0,Wunderground v.1.15,2013-09-17 04:52:00,
2013-09-17 00:58:00,53.9,41.6,30.25,North,360,4.0,4.0,63,0.00,,,0.00,0,Wunderground v.1.15,2013-09-17 04:58:00,
2013-09-17 01:12:00,53.6,40.0,30.25,North,360,5.0,8.0,60,0.00,,,0.00,0,Wunderground v.1.15,2013-09-17 05:12:00,
2013-09-17 01:22:00,53.3,39.3,30.26,North,360,5.0,6.0,59,0.00,,,0.00,0,Wunderground v.1.15,2013-09-17 05:22:00,
2013-09-17 01:31:00,53.1,39.1,30.26,North,360,5.0,6.0,59,0.00,,,0.00,0,Wunderground v.1.15,2013-09-17 05:31:00,
2013-09-17 01:40:00,52.8,38.9,30.26,North,360,4.0,7.0,59,0.00,,,0.00,0,Wunderground v.1.15,2013-09-17 05:40:00,
2013-09-17 01:53:00,52.3,38.8,30.27,North,360,6.0,6.0,60,0.00,,,0.00,0,Wunderground v.1.15,2013-09-17 05:53:00,
2013-09-17 02:03:00,52.2,38.7,30.27,North,360,4.0,6.0,60,0.00,,,0.00,0,Wunderground v.1.15,2013-09-17 06:03:00,
2013-09-17 02:15:00,51.7,38.3,30.27,North,360,5.0,5.0,60,0.00,,,0.00,0,Wunderground v.1.15,2013-09-17 06:15:00,
2013-09-17 02:23:00,51.6,38.6,30.28,North,360,3.0,5.0,61,0.00,,,0.00,0,Wunderground v.1.15,2013-09-17 06:23:00,
2013-09-17 02:34:00,51.1,38.5,30.28,North,360,3.0,4.0,62,0.00,,,0.00,0,Wunderground v.1.15,2013-09-17 06:34:00,
2013-09-17 02:42:00,51.0,38.4,30.28,North,360,3.0,4.0,62,0.00,,,0.00,0,Wunderground v.1.15,2013-09-17 06:42:00,
2013-09-17 02:54:00,50.5,37.1,30.28,North,360,4.0,6.0,60,0.00,,,0.00,0,Wunderground v.1.15,2013-09-17 06:54:00,
2013-09-17 03:02:00,50.5,36.3,30.29,North,360,5.0,8.0,58,0.00,,,0.00,0,Wunderground v.1.15,2013-09-17 07:02:00,
2013-09-17 03:12:00,50.5,35.4,30.29,North,360,4.0,4.0,56,0.00,,,0.00,0,Wunderground v.1.15,2013-09-17 07:12:00,
2013-09-17 03:22:00,50.5,35.8,30.29,North,360,3.0,5.0,57,0.00,,,0.00,0,Wunderground v.1.15,2013-09-17 07:22:00,
2013-09-17 03:32:00,50.2,35.5,30.30,North,360,3.0,3.0,57,0.00,,,0.00,0,Wunderground v.1.15,2013-09-17 07:32:00,
2013-09-17 03:42:00,50.1,35.9,30.30,North,360,3.0,5.0,58,0.00,,,0.00,0,Wunderground v.1.15,2013-09-17 07:42:00,
2013-09-17 03:52:00,49.9,36.1,30.30,North,360,4.0,4.0,59,0.00,,,0.00,0,Wunderground v.1.15,2013-09-17 07:52:00,
2013-09-17 03:59:00,49.8,36.0,30.30,North,360,3.0,4.0,59,0.00,,,0.00,0,Wunderground v.1.15,2013-09-17 07:59:00,
2013-09-17 04:06:00,49.6,36.3,30.30,North,360,1.0,2.0,60,0.00,,,0.00,0,Wunderground v.1.15,2013-09-17 08:06:00,
2013-09-17 04:12:00,49.4,36.5,30.30,North,360,2.0,4.0,61,0.00,,,0.00,0,Wunderground v.1.15,2013-09-17 08:12:00,
2013-09-17 04:20:00,49.1,36.6,30.29,North,360,2.0,2.0,62,0.00,,,0.00,0,Wunderground v.1.15,2013-09-17 08:20:00,
2013-09-17 04:26:00,48.9,36.9,30.29,North,360,2.0,2.0,63,0.00,,,0.00,0,Wunderground v.1.15,2013-09-17 08:26:00,
2013-09-17 04:32:00,48.6,36.6,30.30,North,360,3.0,3.0,63,0.00,,,0.00,0,Wunderground v.1.15,2013-09-17 08:32:00,
2013-09-17 04:39:00,48.5,36.9,30.30,North,360,3.0,3.0,64,0.00,,,0.00,0,Wunderground v.1.15,2013-09-17 08:39:00,
2013-09-17 04:44:00,48.3,37.1,30.30,North,360,2.0,3.0,65,0.00,,,0.00,0,Wunderground v.1.15,2013-09-17 08:44:00,
2013-09-17 04:50:00,48.2,37.0,30.30,North,360,1.0,3.0,65,0.00,,,0.00,0,Wunderground v.1.15,2013-09-17 08:50:00,
2013-09-17 04:56:00,48.0,37.2,30.30,North,360,2.0,2.0,66,0.00,,,0.00,0,Wunderground v.1.15,2013-09-17 08:56:00,
2013-09-17 05:02:00,47.9,37.1,30.30,North,360,2.0,2.0,66,0.00,,,0.00,0,Wunderground v.1.15,2013-09-17 09:02:00,
2013-09-17 05:10:00,47.7,37.3,30.30,North,360,1.0,2.0,67,0.00,,,0.00,0,Wunderground v.1.15,2013-09-17 09:10:00,
2013-09-17 05:19:00,47.6,37.6,30.31,North,360,0.0,0.0,68,0.00,,,0.00,0,Wunderground v.1.15,2013-09-17 09:19:00,
2013-09-17 05:26:00,47.3,37.6,30.31,North,360,0.0,1.0,69,0.00,,,0.00,0,Wunderground v.1.15,2013-09-17 09:26:00,
2013-09-17 05:32:00,47.1,37.4,30.31,North,360,1.0,3.0,69,0.00,,,0.00,0,Wunderground v.1.15,2013-09-17 09:32:00,
2013-09-17 05:40:00,47.0,37.7,30.31,North,360,1.0,1.0,70,0.00,,,0.00,0,Wunderground v.1.15,2013-09-17 09:40:00,
2013-09-17 05:46:00,46.8,37.5,30.32,North,360,1.0,1.0,70,0.00,,,0.00,0,Wunderground v.1.15,2013-09-17 09:46:00,
2013-09-17 05:52:00,46.8,37.9,30.32,North,360,1.0,1.0,71,0.00,,,0.00,0,Wunderground v.1.15,2013-09-17 09:52:00,
2013-09-17 06:00:00,46.7,37.8,30.32,North,360,0.0,0.0,71,0.00,,,0.00,0,Wunderground v.1.15,2013-09-17 10:00:00,
2013-09-17 06:06:00,46.5,37.6,30.33,North,360,0.0,3.0,71,0.00,,,0.00,0,Wunderground v.1.15,2013-09-17 10:06:00,
2013-09-17 06:12:00,46.4,37.9,30.33,North,360,0.0,3.0,72,0.00,,,0.00,0,Wunderground v.1.15,2013-09-17 10:12:00,
2013-09-17 06:19:00,46.4,37.9,30.33,North,360,1.0,3.0,72,0.00,,,0.00,0,Wunderground v.1.15,2013-09-17 10:19:00,
2013-09-17 06:25:00,46.4,37.9,30.33,North,360,1.0,4.0,72,0.00,,,0.00,0,Wunderground v.1.15,2013-09-17 10:25:00,
2013-09-17 06:31:00,46.4,37.9,30.34,North,360,1.0,4.0,72,0.00,,,0.00,0,Wunderground v.1.15,2013-09-17 10:31:00,
2013-09-17 06:39:00,46.4,37.9,30.34,North,360,1.0,1.0,72,0.00,,,0.00,0,Wunderground v.1.15,2013-09-17 10:39:00,
2013-09-17 06:45:00,46.2,37.7,30.35,North,360,0.0,3.0,72,0.00,,,0.00,7,Wunderground v.1.15,2013-09-17 10:45:00,
2013-09-17 06:51:00,46.2,38.0,30.35,North,360,0.0,3.0,73,0.00,,,0.00,9,Wunderground v.1.15,2013-09-17 10:51:00,
2013-09-17 06:56:00,46.2,38.0,30.35,North,360,0.0,1.0,73,0.00,,,0.00,12,Wunderground v.1.15,2013-09-17 10:56:00,
2013-09-17 07:02:00,46.1,37.9,30.36,North,360,0.0,1.0,73,0.00,,,0.00,14,Wunderground v.1.15,2013-09-17 11:02:00,
2013-09-17 07:09:00,46.1,37.9,30.36,North,360,0.0,0.0,73,0.00,,,0.00,16,Wunderground v.1.15,2013-09-17 11:09:00,
2013-09-17 07:14:00,46.1,38.3,30.36,North,360,1.0,1.0,74,0.00,,,0.00,18,Wunderground v.1.15,2013-09-17 11:14:00,
2013-09-17 07:20:00,46.2,38.4,30.36,North,360,2.0,2.0,74,0.00,,,0.00,19,Wunderground v.1.15,2013-09-17 11:20:00,
2013-09-17 07:26:00,46.4,38.6,30.36,North,360,2.0,2.0,74,0.00,,,0.00,25,Wunderground v.1.15,2013-09-17 11:26:00,
2013-09-17 07:32:00,46.5,38.7,30.36,North,360,2.0,4.0,74,0.00,,,0.00,95,Wunderground v.1.15,2013-09-17 11:32:00,
2013-09-17 07:39:00,47.0,39.1,30.36,North,360,3.0,4.0,74,0.00,,,0.00,109,Wunderground v.1.15,2013-09-17 11:39:00,
2013-09-17 07:44:00,47.3,39.1,30.36,North,360,3.0,4.0,73,0.00,,,0.00,51,Wunderground v.1.15,2013-09-17 11:44:00,
2013-09-17 07:50:00,47.7,39.1,30.37,North,360,3.0,4.0,72,0.00,,,0.00,25,Wunderground v.1.15,2013-09-17 11:50:00,
2013-09-17 07:56:00,48.2,39.2,30.37,North,360,4.0,4.0,71,0.00,,,0.00,130,Wunderground v.1.15,2013-09-17 11:56:00,
2013-09-17 08:02:00,48.6,39.6,30.37,North,360,4.0,5.0,71,0.00,,,0.00,181,Wunderground v.1.15,2013-09-17 12:02:00,
2013-09-17 08:09:00,48.9,39.5,30.37,North,360,4.0,5.0,70,0.00,,,0.00,200,Wunderground v.1.15,2013-09-17 12:09:00,
2013-09-17 08:14:00,49.2,39.5,30.37,North,360,4.0,5.0,69,0.00,,,0.00,213,Wunderground v.1.15,2013-09-17 12:14:00,
2013-09-17 08:20:00,49.6,39.5,30.38,North,360,4.0,7.0,68,0.00,,,0.00,104,Wunderground v.1.15,2013-09-17 12:20:00,
2013-09-17 08:26:00,50.1,39.6,30.38,North,360,4.0,4.0,67,0.00,,,0.00,116,Wunderground v.1.15,2013-09-17 12:26:00,
2013-09-17 08:32:00,50.5,39.6,30.38,North,360,4.0,5.0,66,0.00,,,0.00,28,Wunderground v.1.15,2013-09-17 12:32:00,
2013-09-17 08:40:00,51.0,38.4,30.38,North,360,3.0,4.0,62,0.00,,,0.00,28,Wunderground v.1.15,2013-09-17 12:40:00,
2013-09-17 08:46:00,51.6,36.9,30.38,North,360,5.0,6.0,57,0.00,,,0.00,28,Wunderground v.1.15,2013-09-17 12:46:00,
2013-09-17 08:52:00,52.0,36.3,30.38,North,360,5.0,6.0,55,0.00,,,0.00,28,Wunderground v.1.15,2013-09-17 12:52:00,
2013-09-17 09:00:00,52.5,35.8,30.38,North,360,5.0,8.0,53,0.00,,,0.00,30,Wunderground v.1.15,2013-09-17 13:00:00,
2013-09-17 09:06:00,52.6,35.5,30.39,North,360,6.0,8.0,52,0.00,,,0.00,30,Wunderground v.1.15,2013-09-17 13:06:00,
2013-09-17 09:12:00,53.1,35.9,30.39,North,360,5.0,8.0,52,0.00,,,0.00,373,Wunderground v.1.15,2013-09-17 13:12:00,
2013-09-17 09:18:00,53.2,35.0,30.39,North,360,5.0,8.0,50,0.00,,,0.00,390,Wunderground v.1.15,2013-09-17 13:18:00,
2013-09-17 09:25:00,53.6,35.9,30.39,North,360,4.0,4.0,51,0.00,,,0.00,385,Wunderground v.1.15,2013-09-17 13:25:00,
2013-09-17 09:31:00,54.1,35.9,30.39,North,360,4.0,6.0,50,0.00,,,0.00,422,Wunderground v.1.15,2013-09-17 13:31:00,
2013-09-17 09:39:00,54.5,35.7,30.39,North,360,4.0,6.0,49,0.00,,,0.00,443,Wunderground v.1.15,2013-09-17 13:39:00,
2013-09-17 09:45:00,54.7,34.8,30.40,North,360,5.0,8.0,47,0.00,,,0.00,457,Wunderground v.1.15,2013-09-17 13:45:00,
2013-09-17 09:51:00,54.8,35.5,30.40,North,360,5.0,8.0,48,0.00,,,0.00,473,Wunderground v.1.15,2013-09-17 13:51:00,
2013-09-17 09:57:00,55.0,34.6,30.40,North,360,5.0,5.0,46,0.00,,,0.00,482,Wunderground v.1.15,2013-09-17 13:57:00,
2013-09-17 10:03:00,55.1,34.7,30.40,North,11,5.0,5.0,46,0.00,,,0.00,497,Wunderground v.1.15,2013-09-17 14:03:00,
2013-09-17 10:09:00,55.3,34.3,30.40,North,9,5.0,5.0,45,0.00,,,0.00,510,Wunderground v.1.15,2013-09-17 14:09:00,
2013-09-17 10:14:00,55.7,35.8,30.40,North,360,4.0,5.0,47,0.00,,,0.00,522,Wunderground v.1.15,2013-09-17 14:14:00,
2013-09-17 10:20:00,56.0,34.9,30.40,North,360,4.0,10.0,45,0.00,,,0.00,534,Wunderground v.1.15,2013-09-17 14:20:00,
2013-09-17 10:26:00,56.0,34.4,30.40,North,360,6.0,6.0,44,0.00,,,0.00,543,Wunderground v.1.15,2013-09-17 14:26:00,
2013-09-17 10:32:00,56.3,35.8,30.40,North,360,4.0,6.0,46,0.00,,,0.00,555,Wunderground v.1.15,2013-09-17 14:32:00,
2013-09-17 10:40:00,56.3,34.1,30.40,North,360,5.0,9.0,43,0.00,,,0.00,570,Wunderground v.1.15,2013-09-17 14:40:00,
2013-09-17 10:46:00,56.6,35.5,30.40,North,360,5.0,5.0,45,0.00,,,0.00,582,Wunderground v.1.15,2013-09-17 14:46:00,
2013-09-17 10:52:00,57.3,36.1,30.40,North,360,3.0,7.0,45,0.00,,,0.00,592,Wunderground v.1.15,2013-09-17 14:52:00,
2013-09-17 10:59:00,57.5,34.6,30.40,North,360,4.0,6.0,42,0.00,,,0.00,603,Wunderground v.1.15,2013-09-17 14:59:00,
2013-09-17 11:04:00,57.2,34.3,30.40,North,360,6.0,7.0,42,0.00,,,0.00,612,Wunderground v.1.15,2013-09-17 15:04:00,
2013-09-17 11:10:00,57.2,34.3,30.40,North,360,5.0,7.0,42,0.00,,,0.00,621,Wunderground v.1.15,2013-09-17 15:10:00,
2013-09-17 11:16:00,57.2,34.3,30.40,North,360,4.0,4.0,42,0.00,,,0.00,626,Wunderground v.1.15,2013-09-17 15:16:00,
2013-09-17 11:22:00,58.0,35.6,30.40,North,360,3.0,7.0,43,0.00,,,0.00,635,Wunderground v.1.15,2013-09-17 15:22:00,
2013-09-17 11:28:00,58.1,35.1,30.40,North,360,4.0,5.0,42,0.00,,,0.00,642,Wunderground v.1.15,2013-09-17 15:28:00,
2013-09-17 11:36:00,58.1,34.5,30.40,North,360,4.0,6.0,41,0.00,,,0.00,652,Wunderground v.1.15,2013-09-17 15:36:00,
2013-09-17 11:42:00,58.1,33.9,30.40,North,360,6.0,11.0,40,0.00,,,0.00,661,Wunderground v.1.15,2013-09-17 15:42:00,
2013-09-17 11:50:00,58.1,33.9,30.39,North,360,6.0,6.0,40,0.00,,,0.00,663,Wunderground v.1.15,2013-09-17 15:50:00,
2013-09-17 11:56:00,58.6,34.3,30.39,North,360,5.0,5.0,40,0.00,,,0.00,670,Wunderground v.1.15,2013-09-17 15:56:00,
2013-09-17 12:02:00,58.7,34.4,30.39,North,360,5.0,5.0,40,0.00,,,0.00,675,Wunderground v.1.15,2013-09-17 16:02:00,
2013-09-17 12:09:00,59.6,35.9,30.39,North,360,3.0,4.0,41,0.00,,,0.00,682,Wunderground v.1.15,2013-09-17 16:09:00,
2013-09-17 12:15:00,59.9,34.9,30.39,North,360,3.0,3.0,39,0.00,,,0.00,684,Wunderground v.1.15,2013-09-17 16:15:00,
2013-09-17 12:21:00,60.2,35.1,30.39,NNE,16,4.0,4.0,39,0.00,,,0.00,687,Wunderground v.1.15,2013-09-17 16:21:00,
2013-09-17 12:29:00,60.9,35.8,30.39,North,360,3.0,4.0,39,0.00,,,0.00,691,Wunderground v.1.15,2013-09-17 16:29:00,
2013-09-17 12:35:00,60.9,33.7,30.38,North,360,4.0,4.0,36,0.00,,,0.00,691,Wunderground v.1.15,2013-09-17 16:35:00,
2013-09-17 12:41:00,61.0,33.8,30.38,North,360,4.0,4.0,36,0.00,,,0.00,694,Wunderground v.1.15,2013-09-17 16:41:00,
2013-09-17 12:49:00,61.6,35.7,30.38,North,10,3.0,4.0,38,0.00,,,0.00,694,Wunderground v.1.15,2013-09-17 16:49:00,
2013-09-17 12:57:00,61.5,35.6,30.38,North,360,4.0,4.0,38,0.00,,,0.00,691,Wunderground v.1.15,2013-09-17 16:57:00,
2013-09-17 13:02:00,62.0,34.7,30.37,North,360,3.0,4.0,36,0.00,,,0.00,693,Wunderground v.1.15,2013-09-17 17:02:00,
2013-09-17 13:09:00,62.4,35.8,30.37,North,360,3.0,7.0,37,0.00,,,0.00,691,Wunderground v.1.15,2013-09-17 17:09:00,
2013-09-17 13:16:00,62.6,35.9,30.37,NNE,23,3.0,4.0,37,0.00,,,0.00,686,Wunderground v.1.15,2013-09-17 17:16:00,
2013-09-17 13:22:00,62.0,34.7,30.37,North,360,4.0,4.0,36,0.00,,,0.00,684,Wunderground v.1.15,2013-09-17 17:22:00,
2013-09-17 13:30:00,62.7,37.4,30.36,North,360,2.0,4.0,39,0.00,,,0.00,680,Wunderground v.1.15,2013-09-17 17:30:00,
2013-09-17 13:36:00,63.9,37.1,30.36,North,360,2.0,3.0,37,0.00,,,0.00,677,Wunderground v.1.15,2013-09-17 17:36:00,
2013-09-17 13:42:00,63.5,34.6,30.36,North,360,3.0,3.0,34,0.00,,,0.00,671,Wunderground v.1.15,2013-09-17 17:42:00,
2013-09-17 13:50:00,63.1,34.3,30.36,North,360,3.0,3.0,34,0.00,,,0.00,668,Wunderground v.1.15,2013-09-17 17:50:00,
2013-09-17 13:56:00,64.3,36.8,30.36,North,360,3.0,3.0,36,0.00,,,0.00,663,Wunderground v.1.15,2013-09-17 17:56:00,
2013-09-17 14:02:00,63.5,34.6,30.36,North,360,3.0,4.0,34,0.00,,,0.00,656,Wunderground v.1.15,2013-09-17 18:02:00,
2013-09-17 14:10:00,64.0,34.3,30.36,North,360,3.0,4.0,33,0.00,,,0.00,645,Wunderground v.1.15,2013-09-17 18:10:00,
2013-09-17 14:16:00,64.3,36.0,30.35,North,360,4.0,4.0,35,0.00,,,0.00,640,Wunderground v.1.15,2013-09-17 18:16:00,
2013-09-17 14:22:00,63.9,35.0,30.35,North,360,3.0,5.0,34,0.00,,,0.00,635,Wunderground v.1.15,2013-09-17 18:22:00,
2013-09-17 14:30:00,63.4,36.0,30.35,North,360,4.0,4.0,36,0.00,,,0.00,624,Wunderground v.1.15,2013-09-17 18:30:00,
2013-09-17 14:36:00,64.2,36.0,30.35,North,360,3.0,3.0,35,0.00,,,0.00,615,Wunderground v.1.15,2013-09-17 18:36:00,
2013-09-17 14:42:00,64.2,36.0,30.35,North,360,3.0,6.0,35,0.00,,,0.00,605,Wunderground v.1.15,2013-09-17 18:42:00,
2013-09-17 14:48:00,64.7,34.1,30.35,North,360,1.0,2.0,32,0.00,,,0.00,599,Wunderground v.1.15,2013-09-17 18:48:00,
2013-09-17 14:56:00,64.3,36.0,30.35,North,360,3.0,3.0,35,0.00,,,0.00,585,Wunderground v.1.15,2013-09-17 18:56:00,
2013-09-17 15:01:00,63.9,35.7,30.34,North,360,2.0,3.0,35,0.00,,,0.00,577,Wunderground v.1.15,2013-09-17 19:01:00,
2013-09-17 15:09:00,64.0,34.3,30.34,NNE,15,3.0,7.0,33,0.00,,,0.00,561,Wunderground v.1.15,2013-09-17 19:09:00,
2013-09-17 15:15:00,64.3,33.8,30.34,North,360,3.0,3.0,32,0.00,,,0.00,548,Wunderground v.1.15,2013-09-17 19:15:00,
2013-09-17 15:21:00,64.0,35.0,30.34,North,360,3.0,7.0,34,0.00,,,0.00,538,Wunderground v.1.15,2013-09-17 19:21:00,
2013-09-17 15:29:00,64.3,34.6,30.34,North,360,3.0,4.0,33,0.00,,,0.00,524,Wunderground v.1.15,2013-09-17 19:29:00,
2013-09-17 15:35:00,64.7,34.1,30.33,NNE,19,3.0,3.0,32,0.00,,,0.00,510,Wunderground v.1.15,2013-09-17 19:35:00,
2013-09-17 15:41:00,65.0,35.2,30.33,North,360,2.0,5.0,33,0.00,,,0.00,499,Wunderground v.1.15,2013-09-17 19:41:00,
2013-09-17 15:48:00,64.5,34.0,30.33,North,360,3.0,3.0,32,0.00,,,0.00,483,Wunderground v.1.15,2013-09-17 19:48:00,
2013-09-17 15:54:00,64.2,33.7,30.33,North,360,3.0,3.0,32,0.00,,,0.00,468,Wunderground v.1.15,2013-09-17 19:54:00,
2013-09-17 16:00:00,64.5,34.0,30.33,North,360,3.0,4.0,32,0.00,,,0.00,454,Wunderground v.1.15,2013-09-17 20:00:00,
2013-09-17 16:06:00,64.5,34.0,30.33,North,360,3.0,4.0,32,0.00,,,0.00,439,Wunderground v.1.15,2013-09-17 20:06:00,
2013-09-17 16:12:00,64.7,35.7,30.33,North,360,4.0,4.0,34,0.00,,,0.00,425,Wunderground v.1.15,2013-09-17 20:12:00,
2013-09-17 16:20:00,64.0,35.0,30.33,North,360,2.0,3.0,34,0.00,,,0.00,404,Wunderground v.1.15,2013-09-17 20:20:00,
2013-09-17 16:26:00,63.7,35.5,30.33,North,360,1.0,2.0,35,0.00,,,0.00,343,Wunderground v.1.15,2013-09-17 20:26:00,
2013-09-17 16:32:00,63.9,35.7,30.32,North,360,1.0,3.0,35,0.00,,,0.00,47,Wunderground v.1.15,2013-09-17 20:32:00,
2013-09-17 16:40:00,63.9,35.7,30.32,North,360,3.0,4.0,35,0.00,,,0.00,47,Wunderground v.1.15,2013-09-17 20:40:00,
2013-09-17 16:46:00,63.9,35.7,30.32,NNE,15,2.0,2.0,35,0.00,,,0.00,90,Wunderground v.1.15,2013-09-17 20:46:00,
2013-09-17 16:52:00,63.7,35.5,30.32,North,360,2.0,2.0,35,0.00,,,0.00,53,Wunderground v.1.15,2013-09-17 20:52:00,
2013-09-17 17:00:00,63.5,36.0,30.32,North,360,2.0,4.0,36,0.00,,,0.00,26,Wunderground v.1.15,2013-09-17 21:00:00,
2013-09-17 17:06:00,63.5,36.7,30.32,North,360,2.0,2.0,37,0.00,,,0.00,81,Wunderground v.1.15,2013-09-17 21:06:00,
2013-09-17 17:12:00,63.4,36.0,30.32,NNE,15,1.0,2.0,36,0.00,,,0.00,26,Wunderground v.1.15,2013-09-17 21:12:00,
2013-09-17 17:18:00,63.4,36.7,30.32,North,360,1.0,1.0,37,0.00,,,0.00,65,Wunderground v.1.15,2013-09-17 21:18:00,
2013-09-17 17:24:00,63.4,36.7,30.32,North,360,1.0,5.0,37,0.00,,,0.00,44,Wunderground v.1.15,2013-09-17 21:24:00,
2013-09-17 17:29:00,63.2,36.5,30.32,North,11,2.0,4.0,37,0.00,,,0.00,70,Wunderground v.1.15,2013-09-17 21:29:00,
2013-09-17 17:36:00,63.2,36.5,30.32,North,360,2.0,6.0,37,0.00,,,0.00,121,Wunderground v.1.15,2013-09-17 21:36:00,
2013-09-17 17:42:00,63.1,36.4,30.32,North,360,3.0,6.0,37,0.00,,,0.00,67,Wunderground v.1.15,2013-09-17 21:42:00,
2013-09-17 17:48:00,63.1,37.7,30.32,North,360,2.0,3.0,39,0.00,,,0.00,107,Wunderground v.1.15,2013-09-17 21:48:00,
2013-09-17 17:56:00,63.1,37.7,30.32,North,360,1.0,1.0,39,0.00,,,0.00,141,Wunderground v.1.15,2013-09-17 21:56:00,
2013-09-17 18:02:00,63.1,36.4,30.32,North,360,1.0,4.0,37,0.00,,,0.00,125,Wunderground v.1.15,2013-09-17 22:02:00,
2013-09-17 18:08:00,63.1,35.7,30.32,North,360,2.0,2.0,36,0.00,,,0.00,109,Wunderground v.1.15,2013-09-17 22:08:00,
2013-09-17 18:13:00,63.1,36.4,30.32,North,360,1.0,2.0,37,0.00,,,0.00,97,Wunderground v.1.15,2013-09-17 22:13:00,
2013-09-17 18:19:00,63.1,36.4,30.31,North,360,1.0,1.0,37,0.00,,,0.00,32,Wunderground v.1.15,2013-09-17 22:19:00,
2013-09-17 18:25:00,62.9,37.5,30.31,North,360,1.0,1.0,39,0.00,,,0.00,23,Wunderground v.1.15,2013-09-17 22:25:00,
2013-09-17 18:31:00,62.9,37.5,30.31,North,360,0.0,1.0,39,0.00,,,0.00,23,Wunderground v.1.15,2013-09-17 22:31:00,
2013-09-17 18:39:00,62.7,38.0,30.31,North,360,0.0,0.0,40,0.00,,,0.00,12,Wunderground v.1.15,2013-09-17 22:39:00,
2013-09-17 18:45:00,62.6,38.6,30.31,North,360,0.0,0.0,41,0.00,,,0.00,9,Wunderground v.1.15,2013-09-17 22:45:00,
2013-09-17 18:50:00,62.4,39.0,30.31,North,360,0.0,0.0,42,0.00,,,0.00,7,Wunderground v.1.15,2013-09-17 22:50:00,
2013-09-17 18:56:00,62.1,39.3,30.31,North,360,0.0,0.0,43,0.00,,,0.00,5,Wunderground v.1.15,2013-09-17 22:56:00,
2013-09-17 19:02:00,62.0,39.8,30.31,North,360,0.0,0.0,44,0.00,,,0.00,0,Wunderground v.1.15,2013-09-17 23:02:00,
2013-09-17 19:09:00,61.6,40.0,30.31,North,360,0.0,0.0,45,0.00,,,0.00,0,Wunderground v.1.15,2013-09-17 23:09:00,
2013-09-17 19:16:00,61.2,40.8,30.31,North,360,0.0,0.0,47,0.00,,,0.00,0,Wunderground v.1.15,2013-09-17 23:16:00,
2013-09-17 19:22:00,60.9,40.5,30.31,North,360,0.0,0.0,47,0.00,,,0.00,0,Wunderground v.1.15,2013-09-17 23:22:00,
2013-09-17 19:30:00,60.2,41.0,30.31,North,360,0.0,0.0,49,0.00,,,0.00,0,Wunderground v.1.15,2013-09-17 23:30:00,
2013-09-17 19:36:00,59.8,41.6,30.31,North,360,0.0,0.0,51,0.00,,,0.00,0,Wunderground v.1.15,2013-09-17 23:36:00,
2013-09-17 19:42:00,59.3,41.7,30.31,North,360,0.0,0.0,52,0.00,,,0.00,0,Wunderground v.1.15,2013-09-17 23:42:00,
2013-09-17 19:50:00,58.9,42.3,30.31,North,360,0.0,0.0,54,0.00,,,0.00,0,Wunderground v.1.15,2013-09-17 23:50:00,
2013-09-17 19:56:00,58.4,42.8,30.31,North,360,0.0,0.0,56,0.00,,,0.00,0,Wunderground v.1.15,2013-09-17 23:56:00,
2013-09-17 20:02:00,58.1,43.4,30.31,North,360,0.0,0.0,58,0.00,,,0.00,0,Wunderground v.1.15,2013-09-18 00:02:00,
2013-09-17 20:10:00,57.5,43.3,30.31,North,360,0.0,0.0,59,0.00,,,0.00,0,Wunderground v.1.15,2013-09-18 00:10:00,
2013-09-17 20:16:00,57.2,43.0,30.32,North,360,0.0,0.0,59,0.00,,,0.00,0,Wunderground v.1.15,2013-09-18 00:16:00,
2013-09-17 20:22:00,56.9,43.2,30.32,North,360,0.0,0.0,60,0.00,,,0.00,0,Wunderground v.1.15,2013-09-18 00:22:00,
2013-09-17 20:30:00,56.6,44.1,30.32,North,360,0.0,0.0,63,0.00,,,0.00,0,Wunderground v.1.15,2013-09-18 00:30:00,
2013-09-17 20:36:00,56.3,44.3,30.32,North,360,0.0,1.0,64,0.00,,,0.00,0,Wunderground v.1.15,2013-09-18 00:36:00,
2013-09-17 20:42:00,55.9,44.3,30.32,North,360,0.0,1.0,65,0.00,,,0.00,0,Wunderground v.1.15,2013-09-18 00:42:00,
2013-09-17 20:50:00,55.7,44.5,30.32,North,360,0.0,0.0,66,0.00,,,0.00,0,Wunderground v.1.15,2013-09-18 00:50:00,
2013-09-17 20:56:00,55.4,44.6,30.32,North,360,0.0,0.0,67,0.00,,,0.00,0,Wunderground v.1.15,2013-09-18 00:56:00,
2013-09-17 21:01:00,55.3,44.9,30.32,North,360,0.0,0.0,68,0.00,,,0.00,0,Wunderground v.1.15,2013-09-18 01:01:00,
2013-09-17 21:09:00,55.0,45.0,30.32,North,360,0.0,0.0,69,0.00,,,0.00,0,Wunderground v.1.15,2013-09-18 01:09:00,
2013-09-17 21:15:00,54.8,45.2,30.32,North,360,0.0,0.0,70,0.00,,,0.00,0,Wunderground v.1.15,2013-09-18 01:15:00,
2013-09-17 21:21:00,54.5,45.3,30.32,North,360,0.0,0.0,71,0.00,,,0.00,0,Wunderground v.1.15,2013-09-18 01:21:00,
2013-09-17 21:29:00,54.2,45.4,30.32,North,360,0.0,0.0,72,0.00,,,0.00,0,Wunderground v.1.15,2013-09-18 01:29:00,
2013-09-17 21:35:00,53.9,45.4,30.32,North,360,0.0,0.0,73,0.00,,,0.00,0,Wunderground v.1.15,2013-09-18 01:35:00,
2013-09-17 21:41:00,53.6,45.5,30.32,North,360,0.0,0.0,74,0.00,,,0.00,0,Wunderground v.1.15,2013-09-18 01:41:00,
2013-09-17 21:47:00,53.5,45.4,30.32,North,360,0.0,0.0,74,0.00,,,0.00,0,Wunderground v.1.15,2013-09-18 01:47:00,
2013-09-17 21:53:00,53.1,45.4,30.32,North,360,0.0,0.0,75,0.00,,,0.00,0,Wunderground v.1.15,2013-09-18 01:53:00,
2013-09-17 22:00:00,52.6,45.6,30.32,North,360,0.0,0.0,77,0.00,,,0.00,0,Wunderground v.1.15,2013-09-18 02:00:00,
2013-09-17 22:06:00,52.6,45.9,30.32,North,360,0.0,0.0,78,0.00,,,0.00,0,Wunderground v.1.15,2013-09-18 02:06:00,
2013-09-17 22:12:00,52.5,46.2,30.32,North,360,0.0,0.0,79,0.00,,,0.00,0,Wunderground v.1.15,2013-09-18 02:12:00,
2013-09-17 22:20:00,52.5,46.2,30.32,North,360,0.0,0.0,79,0.00,,,0.00,0,Wunderground v.1.15,2013-09-18 02:20:00,
2013-09-17 22:26:00,52.3,46.0,30.32,North,360,0.0,0.0,79,0.00,,,0.00,0,Wunderground v.1.15,2013-09-18 02:26:00,
2013-09-17 22:32:00,52.2,45.9,30.32,North,360,0.0,0.0,79,0.00,,,0.00,0,Wunderground v.1.15,2013-09-18 02:32:00,
2013-09-17 22:40:00,52.0,46.0,30.32,North,360,0.0,0.0,80,0.00,,,0.00,0,Wunderground v.1.15,2013-09-18 02:40:00,
2013-09-17 22:46:00,51.9,45.9,30.32,North,360,0.0,0.0,80,0.00,,,0.00,0,Wunderground v.1.15,2013-09-18 02:46:00,
2013-09-17 22:52:00,51.9,45.9,30.32,North,360,0.0,0.0,80,0.00,,,0.00,0,Wunderground v.1.15,2013-09-18 02:52:00,
2013-09-17 23:00:00,51.7,46.1,30.33,North,360,0.0,0.0,81,0.00,,,0.00,0,Wunderground v.1.15,2013-09-18 03:00:00,
2013-09-17 23:06:00,51.6,46.0,30.33,North,360,0.0,0.0,81,0.00,,,0.00,0,Wunderground v.1.15,2013-09-18 03:06:00,
2013-09-17 23:12:00,51.3,45.7,30.33,North,360,0.0,0.0,81,0.00,,,0.00,0,Wunderground v.1.15,2013-09-18 03:12:00,
2013-09-17 23:20:00,51.1,45.5,30.32,North,360,0.0,0.0,81,0.00,,,0.00,0,Wunderground v.1.15,2013-09-18 03:20:00,
2013-09-17 23:26:00,51.0,45.7,30.32,North,360,0.0,0.0,82,0.00,,,0.00,0,Wunderground v.1.15,2013-09-18 03:26:00,
2013-09-17 23:32:00,50.8,45.5,30.32,North,360,0.0,0.0,82,0.00,,,0.00,0,Wunderground v.1.15,2013-09-18 03:32:00,
2013-09-17 23:38:00,50.7,45.4,30.32,North,360,0.0,0.0,82,0.00,,,0.00,0,Wunderground v.1.15,2013-09-18 03:38:00,
2013-09-17 23:43:00,50.5,45.2,30.32,North,360,0.0,0.0,82,0.00,,,0.00,0,Wunderground v.1.15,2013-09-18 03:43:00,
2013-09-17 23:50:00,50.4,45.1,30.32,North,360,0.0,0.0,82,0.00,,,0.00,0,Wunderground v.1.15,2013-09-18 03:50:00,
2013-09-17 23:55:00,50.2,45.2,30.32,North,360,0.0,0.0,83,0.00,,,0.00,0,Wunderground v.1.15,2013-09-18 03:55:00,